Weather History for Naples, FL

Change the Weather History Date:

Tuesday, November 27, 2012

  Actual Average Record
Temperature  
Mean Temperature 71 °F 70 °F  
Max Temperature 81 °F 79 °F 88 °F (1990)
Min Temperature 60 °F 60 °F 38 °F (1977)
Degree Days  
Heating Degree Days 0 1  
Month to date heating degree days 12 8  
Since 1 July heating degree days 13 9  
Cooling Degree Days 6 6  
Month to date cooling degree days 107 208  
Year to date cooling degree days 3948 3803  
Growing Degree Days 20 (Base 50)    
Moisture  
Dew Point 64 °F    
Average Humidity 79    
Maximum Humidity 100    
Minimum Humidity 58    
Precipitation  
Precipitation 0.00 in 0.06 in 2.26 in (1987)
Month to date precipitation 0.12 1.86  
Year to date precipitation 36.15 50.26  
Snow  
Snow 0.00 in - - ()
Month to date snowfall 0.0  
Since 1 July snowfall 0.0  
Since 1 September snowfall 0.0  
Snow Depth 0.00 in    
Sea Level Pressure  
Sea Level Pressure 30.14 in    
Wind  
Wind Speed 6 mph (SE)    
Max Wind Speed 15 mph    
Max Gust Speed 18 mph    
Visibility 9 miles    
Events      
T = Trace of Precipitation, MM = Missing Value Source: NWS Daily Summary

Daily Weather History Graph

Daily Weather History Graph

Search for Another Location

Airport:

Trip Planner

Search our weather history database for the weather conditions in past years. The results will help you decide how hot, cold, wet, or windy it might be!

Date:

Astronomy

Nov. 27, 2012 Rise Set
Actual Time 6:54 AM EST 5:34 PM EST
Civil Twilight 6:29 AM EST 5:59 PM EST
Nautical Twilight 6:01 AM EST 6:28 PM EST
Astronomical Twilight 5:33 AM EST 6:56 PM EST
Moon 5:04 PM EST (11/27) 6:01 AM EST (11/27)
Length of Visible Light 11h 29m
Length of Day
10h 40m
Waxing Gibbous, 99% of the Moon is Illuminated
Nov 27
Waxing Gibbous
Nov 28
Full
Dec 6
Last Quarter
Dec 13
New
Dec 20
First Quarter

Hourly Weather History & Observations

Time (EST) Temp. Heat Index Dew Point Humidity Pressure Visibility Wind Dir Wind Speed Gust Speed Precip Events Conditions
12:53 AM 63.0 °F - 61.0 °F 93% 30.17 in 9.0 mi Calm Calm - N/A   Clear
1:53 AM 61.0 °F - 60.1 °F 97% 30.15 in 9.0 mi East 3.5 mph - N/A   Clear
2:53 AM 62.1 °F - 60.1 °F 93% 30.15 in 8.0 mi Calm Calm - N/A   Overcast
3:53 AM 61.0 °F - 60.1 °F 97% 30.14 in 7.0 mi NE 3.5 mph - N/A   Mostly Cloudy
4:53 AM 62.1 °F - 61.0 °F 96% 30.13 in 8.0 mi East 3.5 mph - N/A   Overcast
5:53 AM 63.0 °F - 61.0 °F 93% 30.14 in 9.0 mi East 4.6 mph - N/A   Mostly Cloudy
6:53 AM 62.1 °F - 61.0 °F 96% 30.15 in 7.0 mi East 3.5 mph - N/A   Partly Cloudy
7:53 AM 64.9 °F - 62.1 °F 90% 30.16 in 7.0 mi East 5.8 mph - N/A   Clear
8:53 AM 70.0 °F - 64.0 °F 81% 30.17 in 10.0 mi ESE 8.1 mph - N/A   Clear
9:53 AM 75.0 °F - 66.9 °F 76% 30.18 in 10.0 mi ESE 6.9 mph - N/A   Scattered Clouds
10:53 AM 78.1 °F - 66.9 °F 68% 30.17 in 10.0 mi SE 12.7 mph - N/A   Mostly Cloudy
11:34 AM 78.8 °F - 66.2 °F 65% 30.16 in 10.0 mi SSE 10.4 mph - N/A   Mostly Cloudy
11:53 AM 79.0 °F - 66.0 °F 64% 30.16 in 10.0 mi SSE 9.2 mph - N/A   Scattered Clouds
12:53 PM 80.1 °F 81.9 °F 64.9 °F 60% 30.13 in 10.0 mi South 10.4 mph - N/A   Partly Cloudy
3:53 PM 79.0 °F - 64.9 °F 62% 30.10 in 10.0 mi SSW 8.1 mph - N/A   Clear
4:53 PM 75.9 °F - 66.0 °F 71% 30.11 in 10.0 mi SSW 8.1 mph - N/A   Scattered Clouds
5:53 PM 73.0 °F - 66.0 °F 79% 30.11 in 10.0 mi South 3.5 mph - N/A   Clear
6:08 PM 71.6 °F - 66.2 °F 83% 30.12 in 10.0 mi South 4.6 mph - N/A   Partly Cloudy
6:53 PM 70.0 °F - 66.0 °F 87% 30.13 in 10.0 mi SW 3.5 mph - N/A   Clear
7:53 PM 70.0 °F - 66.0 °F 87% 30.14 in 10.0 mi Calm Calm - N/A   Clear
8:53 PM 68.0 °F - 66.0 °F 93% 30.15 in 10.0 mi Calm Calm - N/A   Clear
9:53 PM 68.0 °F - 66.0 °F 93% 30.13 in 10.0 mi Calm Calm - N/A   Partly Cloudy
10:53 PM 66.9 °F - 66.0 °F 97% 30.13 in 9.0 mi Calm Calm - N/A   Clear
11:53 PM 66.0 °F - 64.9 °F 96% 30.13 in 9.0 mi Calm Calm - N/A   Clear